Location: Cactus School
(34.5700°N, 118.0931°W)
Time: 05:27:41
(UTC-07:00)

Transit 4A - Pass Details

Date: 21 April 2024
Orbit: 871 x 971 km, 66.8° (Epoch: 22 May)

Event Time Altitude Azimuth Distance (km) Brightness Sun altitude
Rises 22:21:53 0° 334° (NNW) 3,464 11.9 -31.2°
Reaches altitude 10° 22:24:21 10° 335° (NNW) 2,527 11.0 -31.6°
Enters shadow 22:28:57 57° 346° (NNW) 1,026 8.2 -32.2°
Maximum altitude 22:30:12 82° 64° (ENE) 893 - -32.4°
Drops below altitude 10° 22:36:07 10° 152° (SSE) 2,556 - -33.2°
Sets 22:38:38 0° 153° (SSE) 3,507 - -33.5°
